Sheridan, WY

4:43 PM MDT on June 23, 2017 (GMT -0600)
Sheridan County

Weather History for KSHR - September, 2013

Change the Weather History Date:

Saturday, September 28, 2013

  Actual Average Record
Temperature  
Mean Temperature 49 °F 52 °F  
Max Temperature 65 °F 68 °F 92 °F (2001)
Min Temperature 32 °F 37 °F 19 °F (1984)
Degree Days  
Heating Degree Days 16 13  
Month to date heating degree days 140 214  
Since 1 July heating degree days 141 276  
Cooling Degree Days 0 0  
Month to date cooling degree days 82 26  
Year to date cooling degree days 592 416  
Moisture  
Dew Point 33 °F    
Average Humidity 60    
Maximum Humidity 89    
Minimum Humidity 30    
Precipitation  
Precipitation 0.00 in 0.05 in 2.23 in (1923)
Month to date precipitation 4.26 1.32  
Year to date precipitation 14.25 11.37  
Sea Level Pressure  
Sea Level Pressure 29.93 in    
Wind  
Wind Speed 6 mph (WSW)    
Max Wind Speed 22 mph    
Max Gust Speed 26 mph    
Visibility 10 miles    
Events      
T = Trace of Precipitation, MM = Missing Value Source: NWS Daily Summary

Daily Weather History Graph

Daily Weather History Graph

Search for Another Location

Airport or City:

Trip Planner

Search our weather history database for the weather conditions in past years. The results will help you decide how hot, cold, wet, or windy it might be!

Date:

Astronomy

Sep. 28, 2013 Rise Set
Actual Time 7:02 AM MDT 6:53 PM MDT
Civil Twilight 6:33 AM MDT 7:22 PM MDT
Nautical Twilight 5:59 AM MDT 7:56 PM MDT
Astronomical Twilight 5:24 AM MDT 8:31 PM MDT
Moon 12:39 AM MDT (9/28) 3:26 PM MDT (9/28)
Length of Visible Light 12h 49m
Length of Day
11h 50m
Waning Crescent, 35% of the Moon is Illuminated
Sep 28
Waning Crescent
Oct 4
New
Oct 11
First Quarter
Oct 18
Full
Oct 26
Last Quarter

Hourly Weather History & Observations

Time (MDT) Temp. Windchill Dew Point Humidity Pressure Visibility Wind Dir Wind Speed Gust Speed Precip Events Conditions
12:53 AM 34.0 °F 31.0 °F 30.0 °F 85% 29.98 in 10.0 mi SE 3.5 mph - N/A   Clear
1:53 AM 33.1 °F 30.0 °F 28.0 °F 82% 29.98 in 10.0 mi SSW 3.5 mph - N/A   Clear
2:53 AM 36.0 °F - 28.0 °F 73% 29.98 in 10.0 mi Calm Calm - N/A   Clear
3:53 AM 34.0 °F - 28.0 °F 79% 29.99 in 10.0 mi Calm Calm - N/A   Clear
4:53 AM 36.0 °F - 27.0 °F 70% 29.98 in 10.0 mi Calm Calm - N/A   Scattered Clouds
5:53 AM 39.0 °F - 30.9 °F 73% 29.97 in 10.0 mi Calm Calm - N/A   Overcast
6:53 AM 41.0 °F - 30.0 °F 65% 29.97 in 10.0 mi Calm Calm - N/A   Mostly Cloudy
7:53 AM 42.1 °F - 34.0 °F 73% 29.98 in 10.0 mi Calm Calm - N/A   Clear
8:53 AM 48.0 °F - 37.0 °F 66% 29.98 in 10.0 mi SE 3.5 mph - N/A   Overcast
9:53 AM 57.0 °F - 35.1 °F 44% 29.95 in 10.0 mi WSW 10.4 mph - N/A   Scattered Clouds
10:53 AM 59.0 °F - 33.1 °F 38% 29.94 in 10.0 mi West 3.5 mph - N/A   Overcast
11:53 AM 59.0 °F - 33.1 °F 38% 29.94 in 10.0 mi WNW 12.7 mph 21.9 mph N/A   Scattered Clouds
12:53 PM 61.0 °F - 33.1 °F 35% 29.93 in 10.0 mi West 17.3 mph - N/A   Clear
1:53 PM 64.0 °F - 32.0 °F 30% 29.90 in 10.0 mi West 13.8 mph - N/A   Clear
2:53 PM 64.9 °F - 34.0 °F 32% 29.89 in 10.0 mi West 11.5 mph - N/A   Clear
3:53 PM 64.9 °F - 34.0 °F 32% 29.89 in 10.0 mi West 11.5 mph - N/A   Clear
4:53 PM 64.0 °F - 37.0 °F 37% 29.89 in 10.0 mi WNW 13.8 mph - N/A   Clear
5:53 PM 57.9 °F - 39.0 °F 49% 29.90 in 10.0 mi West 4.6 mph - N/A   Clear
6:53 PM 50.0 °F - 37.9 °F 63% 29.92 in 10.0 mi SW 3.5 mph - N/A   Clear
7:53 PM 55.0 °F - 34.0 °F 45% 29.91 in 10.0 mi Variable 5.8 mph - N/A   Clear
8:53 PM 46.9 °F - 35.1 °F 63% 29.92 in 10.0 mi West 6.9 mph - N/A   Clear
9:53 PM 46.9 °F - 35.1 °F 63% 29.89 in 10.0 mi WSW 3.5 mph - N/A   Clear
10:53 PM 48.0 °F - 35.1 °F 61% 29.86 in 10.0 mi WNW 5.8 mph - N/A   Clear
11:53 PM 55.9 °F - 33.1 °F 42% 29.83 in 10.0 mi WSW 11.5 mph 16.1 mph N/A   Clear